Wind_Speed
3 3 2 3 5 6 7 8 10 11 13 13 14 16 17 18 19 20 20 21 22 22 23 24 25 26 28 29 29 30 30 31 31 31 30 29 29 28 27 26 25 24 25 25 26 26 25 24 24
3 3 2 2 2 2 3 5 7 8 10 11 13 14 15 16 17 17 16 16 18 19 20 22 24 25 27 28 29 30 31 32 33 33 33 32 32 31 31 30 29 28 28 28 29 29 29 29 27
6 6 6 5 3 2 1 0 2 5 7 9 10 10 11 11 12 13 14 14 16 17 19 21 23 24 26 28 29 30 31 33 34 34 34 34 34 34 33 33 32 31 31 31 31 32 33 32 31
9 9 8 7 7 6 5 5 5 5 6 6 7 8 9 10 11 13 14 16 17 18 20 22 24 26 27 29 30 31 33 34 35 36 36 36 36 36 36 35 35 35 34 34 34 34 35 35 35
11 10 8 8 8 7 8 7 6 6 7 7 8 8 9 11 13 15 17 19 21 22 24 25 27 29 31 32 34 35 36 37 38 38 39 39 39 39 39 39 38 38 38 37 37 37 37 37 38
10 8 7 6 6 6 6 5 5 5 7 8 10 11 12 13 15 16 19 21 22 24 26 28 30 32 33 35 37 38 39 40 41 42 42 43 43 43 43 43 43 42 41 41 40 40 40 39 39
8 6 7 6 7 7 6 6 6 6 7 9 10 11 12 13 15 17 18 20 22 24 26 29 31 33 35 36 37 38 39 41 42 43 45 46 48 48 48 48 47 46 45 44 44 43 43 43 42
7 6 7 7 7 7 7 7 8 9 10 11 13 14 15 16 18 19 21 23 24 26 29 31 33 36 38 40 41 42 42 43 43 43 44 45 47 49 50 51 51 50 50 49 48 47 46 46 45
8 8 8 8 8 7 7 8 9 11 12 14 15 16 17 18 19 21 23 25 27 29 31 33 35 37 39 41 43 44 46 46 47 47 47 47 47 47 48 50 51 51 52 52 51 51 50 49 49
9 8 8 8 8 8 8 8 9 10 11 13 14 16 18 20 22 24 26 29 31 34 36 38 40 42 43 45 46 48 49 50 50 50 49 50 50 50 49 50 50 51 51 52 52 52 52 52 51
8 9 9 9 10 10 9 9 9 10 11 13 15 18 20 23 26 29 32 34 37 39 42 44 46 48 50 51 52 53 54 54 55 55 55 54 53 53 52 52 52 51 51 52 52 53 53 53 53
9 9 10 10 10 10 10 11 12 13 15 18 20 23 26 29 32 35 38 41 44 47 49 52 54 56 57 58 59 59 60 60 60 60 60 60 59 58 57 56 55 55 54 53 53 53 54 54 53
8 9 9 9 10 11 12 13 15 16 19 22 25 27 30 33 37 40 44 47 51 54 57 60 62 64 66 67 68 68 68 68 68 67 66 65 64 63 62 61 60 59 58 57 56 55 55 55 55
8 8 8 9 10 11 12 14 16 18 21 25 28 32 36 39 43 47 50 54 58 61 64 67 69 71 73 75 76 77 78 77 76 75 74 73 71 69 67 66 65 64 63 62 61 60 59 58 58
6 7 7 8 9 10 11 13 17 21 25 30 34 38 42 46 50 54 57 61 64 67 71 73 76 78 80 82 83 84 84 85 84 83 81 80 78 77 74 71 70 69 68 67 66 65 64 63 62
5 7 8 9 10 12 15 17 21 26 31 35 40 45 49 53 57 60 64 68 71 75 77 80 82 83 85 87 88 88 88 87 86 85 85 84 83 82 80 78 75 73 72 71 70 69 68 67 66
6 8 10 12 14 16 20 23 27 31 36 41 46 51 55 59 63 66 70 74 77 80 82 84 86 87 88 89 88 87 86 85 84 82 81 82 83 84 84 83 81 78 76 75 74 73 72 70 70
9 11 13 15 19 22 25 29 32 36 40 45 50 55 60 64 68 72 75 78 81 83 85 87 88 87 86 82 79 76 73 71 70 68 69 71 75 80 85 86 84 82 81 79 77 76 75 73 72
13 14 16 18 22 26 29 32 35 39 44 49 54 60 64 69 72 76 78 81 82 84 86 86 84 80 74 69 65 62 57 53 50 50 52 54 58 65 76 85 87 86 84 83 81 80 78 76 75
16 17 19 21 25 29 33 36 37 43 48 53 58 64 68 72 75 77 79 81 83 85 85 82 75 68 64 61 58 53 49 46 44 45 46 47 47 51 59 72 84 89 88 86 85 83 81 79 77
17 19 22 25 28 31 37 39 41 46 51 57 63 68 72 75 78 79 80 82 83 82 78 71 64 61 58 55 52 49 47 46 46 45 45 45 45 45 47 55 70 83 90 90 89 87 85 83 80
19 22 25 28 32 33 38 43 44 50 57 63 68 72 74 77 78 80 81 82 80 76 70 63 60 58 56 54 52 50 49 47 46 45 44 43 43 43 43 43 51 66 82 90 91 90 89 87 84
22 25 28 31 33 35 39 46 50 56 62 67 71 74 76 77 79 81 81 79 75 69 63 59 58 58 57 56 55 53 52 51 49 48 46 44 42 41 40 39 40 47 61 77 87 91 91 90 88
24 27 30 33 37 39 43 49 55 61 66 70 73 75 76 78 79 80 79 74 69 64 60 59 60 60 60 60 59 57 55 54 53 51 49 46 43 40 38 36 35 36 42 54 69 81 88 90 90
25 29 33 38 41 43 46 52 59 64 68 71 74 75 76 78 79 78 74 69 64 61 61 62 63 64 64 63 61 59 58 57 55 54 51 48 44 40 37 35 34 32 33 37 47 60 72 82 87
26 28 32 37 41 45 49 55 62 67 70 72 75 75 77 79 78 74 70 66 63 62 63 65 65 64 63 60 58 57 55 54 54 54 53 50 47 42 37 34 33 32 31 31 34 42 52 63 73
27 31 34 38 43 48 53 58 64 69 72 74 75 76 77 77 75 71 67 64 64 65 66 65 63 60 58 56 54 52 51 51 50 50 50 49 48 45 40 36 33 32 31 31 30 32 38 45 54
28 32 36 39 45 51 57 62 67 70 73 75 75 76 77 75 71 68 66 65 66 66 64 61 58 56 53 52 51 50 50 49 49 48 47 45 44 44 43 40 36 33 32 31 31 31 32 35 40
30 33 36 40 45 52 60 65 68 72 74 75 76 76 75 72 68 66 66 67 66 63 60 57 55 53 52 51 51 51 50 50 49 48 46 44 42 41 42 42 40 37 34 33 33 33 33 34 35
29 32 37 43 49 54 62 67 71 73 74 75 75 75 72 69 67 67 67 66 63 59 56 54 53 52 53 53 53 52 52 51 50 48 46 43 41 39 39 41 42 41 39 37 35 35 35 35 36
Wind_Direction
298 278 277 279 281 280 277 269 258 258 259 261 265 267 270 271 272 272 267 264 261 260 260 262 262 263 264 264 264 264 264 264 263 263 263 263 263 263 264 262 260 258 255 252 248 245 242 241 241
61 59 41 10 318 327 288 264 259 273 276 277 278 278 278 279 281 279 276 270 266 264 264 264 263 263 263 264 265 265 265 265 264 264 263 263 263 263 263 262 260 256 253 251 248 246 243 241 241
69 72 68 71 99 122 129 272 291 297 302 303 303 304 300 296 293 290 287 282 278 275 273 272 270 268 267 266 266 266 265 266 265 265 263 262 261 261 261 260 259 256 253 251 249 246 244 241 240
70 73 68 71 73 77 69 50 29 9 359 351 340 331 325 315 305 300 295 291 288 284 281 279 277 275 274 272 271 270 269 268 268 267 266 264 262 261 260 259 257 255 253 251 249 247 245 243 240
72 70 70 65 69 64 56 46 33 19 2 348 335 326 318 311 303 298 294 292 289 287 285 283 281 279 277 275 274 271 270 268 268 267 265 264 263 262 261 259 258 255 253 251 249 248 245 243 242
73 70 66 61 58 51 43 34 22 3 343 332 325 319 312 307 302 298 295 294 294 293 292 290 288 286 283 280 277 274 272 269 268 266 265 264 262 261 260 259 258 257 255 252 250 248 246 243 242
77 71 65 57 53 43 34 23 12 356 343 333 328 322 318 314 311 308 306 304 303 301 298 296 294 292 289 286 283 280 277 274 271 268 266 264 263 262 260 258 257 256 255 253 251 249 247 245 243
70 64 60 54 51 43 30 18 6 354 346 342 337 333 329 325 322 318 315 312 308 304 301 299 296 293 291 288 286 283 281 278 276 273 270 267 265 263 261 259 258 256 254 252 250 249 248 247 245
63 60 57 52 48 40 24 12 2 353 349 347 345 341 337 331 326 321 316 312 308 304 301 298 295 293 291 289 287 285 282 280 278 275 273 270 267 264 262 260 258 256 253 252 250 249 247 246 246
56 54 51 50 48 42 31 23 14 4 357 351 345 338 332 326 321 316 312 309 305 302 300 298 295 293 291 288 286 284 283 281 279 277 274 272 270 266 263 260 258 256 254 251 249 249 248 247 246
57 58 56 54 53 50 43 34 22 8 354 346 340 333 328 323 319 315 312 308 306 303 300 297 295 292 289 287 285 283 281 279 278 276 274 272 270 268 265 261 258 256 254 252 250 248 247 246 245
62 64 61 57 51 44 34 22 11 1 353 347 340 334 328 324 320 316 312 308 305 303 300 297 295 293 290 288 286 283 281 279 276 275 273 271 269 268 265 263 259 256 254 252 251 249 247 246 245
66 62 57 49 37 26 19 12 2 354 348 341 334 329 324 319 315 312 309 307 305 303 301 299 298 296 294 292 290 287 284 281 278 275 273 270 268 266 264 262 259 257 254 251 249 248 247 247 245
59 49 40 31 23 15 6 356 349 342 337 331 327 323 319 316 314 311 309 308 306 304 302 301 299 298 296 295 293 291 289 286 282 278 274 271 268 264 261 259 257 256 254 252 249 247 246 246 246
43 26 17 10 4 357 349 339 333 330 327 325 322 319 317 315 313 312 310 308 306 304 302 301 300 299 297 296 293 291 289 286 283 280 276 271 268 264 261 257 255 253 252 251 249 247 245 244 245
16 360 352 346 339 334 329 326 324 324 322 320 318 316 315 314 313 311 309 307 306 305 304 302 301 300 298 295 293 290 287 285 282 278 275 271 267 263 260 258 255 252 250 249 248 247 246 244 243
346 338 335 330 326 324 323 322 322 321 319 317 316 314 314 313 312 312 311 309 308 307 306 305 303 301 299 297 295 293 292 290 287 283 277 271 266 262 259 256 254 252 250 248 247 246 245 244 244
337 334 331 327 325 325 323 323 322 321 318 316 315 315 314 314 314 314 313 312 312 311 310 308 306 303 301 300 299 299 298 297 294 290 285 277 268 261 257 254 252 250 249 247 246 245 244 243 243
328 328 327 325 323 323 323 323 323 321 318 317 317 317 316 316 316 316 316 316 315 314 312 309 307 306 305 304 304 303 301 299 298 296 292 286 277 267 257 252 249 247 246 245 245 244 242 242 241
321 319 319 320 322 324 322 322 323 320 319 320 320 320 320 319 318 318 318 318 316 314 311 309 308 309 309 308 307 305 304 302 301 300 298 295 289 279 266 255 248 245 243 243 242 242 241 240 240
314 314 318 321 323 324 320 320 324 322 323 323 323 322 321 320 320 320 319 318 316 314 312 311 310 311 312 311 309 307 304 304 304 304 303 300 297 294 283 266 253 245 242 240 240 240 239 238 238
319 319 320 321 322 325 322 321 325 326 326 325 325 324 323 323 323 322 321 319 317 315 314 313 313 313 313 312 310 306 302 299 299 300 302 301 298 297 294 284 267 251 243 240 238 237 237 237 236
321 320 319 320 322 324 324 326 329 328 328 327 326 326 326 325 324 323 322 320 318 316 315 315 314 314 313 311 309 306 302 298 296 297 298 300 299 297 296 292 282 266 251 242 238 237 236 236 235
321 320 320 322 323 328 329 331 330 330 330 329 328 328 327 326 326 325 323 322 320 318 317 316 315 314 313 311 308 305 301 298 294 293 293 294 295 295 294 293 288 278 264 250 242 238 236 235 235
323 325 325 326 328 331 331 333 331 332 331 330 329 329 328 328 328 326 325 324 322 319 318 317 316 315 313 312 309 306 302 298 294 290 288 287 288 289 289 287 286 281 272 259 249 242 239 237 235
325 325 328 329 329 329 332 335 332 333 333 331 330 330 330 330 329 328 327 325 323 321 319 319 318 317 317 315 314 312 309 304 299 293 288 283 281 281 281 280 278 276 272 264 252 244 241 239 238
324 327 330 330 329 332 333 334 333 335 333 332 332 332 332 332 330 329 328 326 324 323 322 322 323 323 322 322 321 320 317 314 310 304 297 288 280 275 273 272 270 269 267 262 255 245 239 237 237
327 329 331 335 335 334 333 335 337 336 334 334 334 334 334 333 331 330 329 327 326 326 327 328 328 328 328 327 326 325 323 320 316 312 306 298 287 276 269 266 263 261 259 256 253 246 238 233 233
330 331 333 334 335 336 336 336 337 337 336 336 336 336 335 334 333 332 330 329 329 331 332 332 333 332 332 330 328 326 324 322 319 316 311 304 296 283 270 262 258 255 253 250 248 244 240 236 233
330 331 333 335 337 337 336 336 339 338 337 338 338 337 336 335 334 332 331 332 333 335 336 336 336 335 334 332 330 328 326 324 321 318 314 308 301 291 277 264 256 251 248 245 243 242 240 238 237
Height
5864 5864 5865 5866 5867 5867 5867 5867 5867 5868 5868 5868 5868 5868 5867 5867 5868 5870 5867 5866 5865 5864 5863 5863 5862 5861 5860 5860 5859 5859 5858 5857 5857 5856 5856 5855 5854 5854 5853 5853 5852 5852 5852 5852 5852 5852 5853 5854 5854
5863 5864 5865 5866 5866 5866 5866 5866 5866 5866 5866 5866 5866 5866 5865 5865 5865 5864 5863 5862 5861 5859 5858 5858 5857 5856 5855 5854 5854 5853 5852 5852 5851 5850 5849 5849 5848 5848 5847 5846 5846 5846 5846 5846 5846 5847 5848 5849 5849
5863 5864 5866 5865 5864 5865 5865 5865 5865 5865 5865 5865 5865 5864 5864 5862 5861 5860 5859 5859 5858 5856 5855 5854 5852 5851 5850 5849 5848 5848 5847 5846 5845 5843 5842 5842 5841 5840 5840 5839 5839 5839 5839 5839 5840 5841 5842 5843 5844
5865 5865 5866 5865 5865 5865 5865 5865 5865 5865 5865 5864 5864 5863 5861 5860 5860 5859 5858 5856 5855 5854 5852 5850 5849 5847 5846 5845 5844 5842 5841 5840 5839 5837 5836 5835 5834 5833 5833 5832 5832 5832 5832 5833 5833 5834 5835 5836 5837
5866 5866 5867 5866 5866 5866 5865 5865 5865 5864 5864 5863 5863 5862 5861 5860 5859 5857 5855 5853 5851 5849 5847 5845 5844 5842 5840 5839 5837 5836 5834 5833 5831 5830 5829 5828 5827 5826 5825 5825 5825 5825 5825 5825 5825 5826 5827 5828 5830
5867 5867 5867 5866 5866 5866 5865 5865 5864 5863 5863 5862 5862 5862 5860 5858 5857 5854 5852 5850 5847 5845 5843 5840 5838 5836 5834 5831 5829 5827 5826 5824 5823 5821 5820 5818 5817 5816 5816 5815 5815 5816 5816 5816 5817 5818 5819 5820 5821
5868 5868 5867 5867 5866 5866 5866 5865 5864 5863 5863 5862 5861 5860 5857 5855 5854 5851 5849 5847 5844 5841 5839 5836 5833 5830 5827 5824 5821 5819 5816 5814 5812 5811 5809 5808 5807 5806 5805 5805 5805 5805 5806 5806 5807 5808 5810 5811 5813
5868 5869 5867 5867 5867 5866 5866 5865 5863 5862 5861 5860 5859 5858 5855 5854 5851 5849 5846 5843 5840 5837 5834 5831 5828 5824 5821 5817 5814 5811 5808 5805 5802 5800 5798 5797 5796 5795 5794 5794 5794 5795 5795 5796 5796 5798 5799 5801 5803
5870 5871 5869 5869 5869 5868 5866 5865 5864 5862 5860 5859 5858 5856 5854 5851 5849 5846 5843 5839 5836 5832 5828 5825 5821 5817 5813 5809 5805 5801 5798 5795 5792 5790 5788 5786 5784 5783 5782 5782 5782 5783 5783 5784 5785 5786 5788 5790 5792
5872 5871 5870 5869 5869 5868 5867 5866 5864 5862 5860 5859 5857 5854 5852 5849 5846 5842 5839 5835 5830 5826 5822 5817 5813 5808 5804 5799 5795 5791 5787 5783 5780 5777 5775 5773 5772 5771 5770 5770 5770 5770 5771 5772 5773 5774 5776 5778 5781
5872 5871 5870 5869 5869 5868 5867 5865 5864 5862 5861 5859 5856 5853 5850 5846 5842 5838 5834 5830 5825 5820 5815 5809 5804 5798 5793 5788 5783 5778 5774 5770 5767 5764 5761 5759 5758 5757 5757 5757 5757 5757 5758 5759 5760 5761 5763 5765 5767
5873 5872 5871 5870 5868 5868 5866 5865 5863 5861 5859 5857 5853 5850 5846 5842 5838 5833 5828 5822 5817 5811 5805 5799 5792 5786 5780 5774 5769 5764 5760 5756 5752 5748 5746 5744 5743 5742 5741 5742 5743 5743 5744 5746 5747 5748 5750 5751 5754
5873 5872 5871 5870 5869 5867 5866 5864 5863 5860 5857 5854 5851 5847 5842 5837 5832 5826 5820 5814 5808 5801 5794 5786 5779 5772 5765 5758 5752 5747 5742 5738 5735 5731 5728 5726 5725 5725 5724 5724 5726 5727 5729 5731 5733 5734 5736 5738 5740
5874 5873 5872 5871 5870 5868 5866 5864 5862 5858 5855 5851 5847 5842 5837 5831 5825 5818 5811 5804 5796 5789 5781 5772 5764 5756 5748 5740 5733 5726 5720 5716 5713 5710 5708 5706 5705 5705 5705 5706 5707 5709 5711 5714 5716 5719 5721 5724 5726
5875 5874 5873 5871 5870 5867 5866 5863 5859 5855 5851 5847 5842 5836 5830 5823 5816 5809 5801 5793 5784 5775 5765 5756 5747 5738 5729 5720 5712 5704 5697 5691 5687 5684 5682 5682 5682 5682 5683 5684 5686 5688 5691 5695 5698 5701 5705 5708 5712
5875 5875 5873 5871 5868 5865 5865 5861 5856 5852 5847 5842 5836 5829 5822 5814 5806 5798 5789 5779 5769 5759 5749 5738 5728 5718 5707 5697 5687 5678 5671 5664 5660 5656 5654 5654 5654 5656 5658 5660 5663 5666 5670 5673 5678 5682 5686 5691 5695
5875 5874 5871 5869 5866 5863 5860 5857 5853 5848 5842 5835 5828 5821 5812 5804 5795 5785 5775 5764 5753 5742 5731 5719 5708 5696 5685 5673 5661 5651 5642 5635 5630 5626 5624 5624 5625 5627 5630 5634 5638 5642 5647 5651 5656 5661 5667 5672 5677
5874 5872 5869 5866 5863 5860 5856 5852 5848 5842 5835 5828 5820 5811 5802 5792 5782 5771 5759 5748 5735 5723 5710 5698 5685 5673 5662 5650 5640 5630 5620 5611 5604 5599 5595 5594 5595 5597 5600 5605 5610 5616 5622 5628 5633 5639 5645 5652 5658
5871 5869 5867 5864 5860 5856 5852 5847 5842 5835 5828 5820 5811 5801 5791 5780 5768 5756 5744 5731 5718 5705 5691 5677 5664 5651 5641 5632 5623 5615 5606 5597 5589 5581 5575 5570 5568 5567 5570 5575 5581 5588 5595 5602 5609 5615 5623 5630 5637
5869 5867 5864 5861 5857 5852 5846 5842 5836 5829 5820 5812 5802 5791 5779 5767 5755 5742 5729 5715 5702 5688 5673 5658 5645 5634 5625 5616 5607 5599 5591 5584 5577 5570 5562 5555 5550 5545 5543 5544 5550 5558 5567 5575 5583 5591 5599 5608 5615
5866 5863 5860 5856 5852 5847 5841 5835 5831 5821 5812 5803 5792 5780 5768 5755 5742 5728 5715 5700 5685 5670 5655 5642 5631 5621 5612 5603 5594 5586 5578 5571 5564 5557 5549 5541 5534 5528 5524 5521 5522 5528 5536 5547 5556 5565 5575 5585 5594
5863 5859 5856 5852 5847 5842 5836 5828 5824 5813 5803 5792 5781 5768 5755 5741 5727 5714 5699 5684 5668 5653 5639 5628 5618 5609 5600 5590 5581 5573 5566 5559 5552 5544 5537 5530 5522 5515 5509 5504 5501 5502 5508 5517 5528 5539 5550 5561 5572
5859 5855 5851 5847 5842 5837 5829 5822 5815 5805 5794 5782 5769 5756 5742 5728 5714 5699 5684 5668 5652 5639 5627 5616 5606 5596 5587 5577 5568 5559 5551 5544 5537 5530 5524 5517 5510 5503 5496 5491 5486 5483 5484 5491 5501 5512 5524 5536 5548
5855 5851 5847 5841 5836 5831 5823 5815 5806 5796 5784 5771 5757 5743 5729 5715 5700 5685 5669 5653 5638 5626 5615 5605 5595 5584 5573 5562 5552 5543 5535 5527 5520 5514 5509 5504 5498 5492 5485 5479 5475 5471 5469 5471 5478 5487 5498 5511 5523
5852 5848 5842 5835 5829 5824 5817 5808 5799 5786 5773 5760 5746 5732 5717 5702 5687 5671 5655 5640 5627 5615 5604 5593 5582 5570 5558 5547 5536 5526 5517 5509 5502 5496 5491 5487 5484 5480 5475 5469 5465 5461 5459 5459 5462 5468 5477 5487 5500
5848 5845 5840 5833 5825 5819 5810 5800 5790 5777 5763 5749 5735 5720 5705 5689 5673 5657 5642 5628 5615 5604 5592 5580 5568 5555 5543 5531 5520 5509 5500 5491 5484 5477 5472 5469 5467 5465 5462 5459 5455 5452 5450 5450 5451 5454 5460 5469 5479
5844 5839 5835 5828 5819 5811 5802 5794 5781 5767 5754 5739 5724 5709 5693 5677 5661 5645 5630 5617 5604 5592 5579 5567 5554 5541 5529 5518 5507 5497 5487 5477 5469 5461 5455 5451 5448 5448 5447 5446 5445 5443 5441 5441 5442 5444 5449 5454 5462
5841 5835 5830 5822 5814 5805 5795 5784 5772 5758 5744 5729 5714 5698 5683 5666 5650 5635 5620 5606 5593 5580 5567 5554 5542 5530 5519 5508 5497 5486 5476 5466 5457 5448 5441 5435 5431 5430 5430 5431 5432 5432 5432 5432 5433 5436 5439 5444 5450
5837 5831 5824 5817 5809 5798 5787 5779 5765 5750 5734 5719 5704 5688 5671 5655 5640 5625 5611 5596 5583 5570 5557 5545 5533 5522 5511 5499 5488 5477 5466 5455 5445 5436 5428 5421 5416 5413 5413 5414 5417 5419 5420 5422 5424 5427 5430 5435 5439
5833 5827 5820 5813 5803 5792 5781 5771 5755 5740 5724 5709 5694 5677 5661 5646 5631 5616 5602 5588 5574 5562 5550 5538 5526 5515 5503 5491 5479 5467 5456 5445 5434 5425 5416 5408 5402 5398 5396 5397 5400 5403 5406 5409 5412 5416 5420 5425 5429